QPF
0.15 0.14 0.12 0.10 0.09 0.08 0.08 0.09 0.09 0.09 0.08 0.06 0.07 0.07 0.06 0.07 0.09 0.08 0.08 0.10 0.11 0.12 0.13 0.14 0.13 0.11 0.11 0.13 0.17 0.14 0.08 0.06 0.04 0.03 0.03 0.02 0.02 0.02
0.11 0.11 0.11 0.09 0.08 0.07 0.07 0.08 0.09 0.09 0.08 0.06 0.07 0.08 0.08 0.07 0.09 0.09 0.08 0.10 0.12 0.14 0.14 0.13 0.13 0.12 0.10 0.09 0.10 0.12 0.09 0.06 0.05 0.04 0.04 0.03 0.03 0.03
0.07 0.07 0.07 0.07 0.07 0.07 0.06 0.07 0.09 0.10 0.08 0.06 0.06 0.07 0.09 0.10 0.10 0.11 0.11 0.11 0.13 0.15 0.14 0.13 0.12 0.12 0.11 0.10 0.09 0.09 0.08 0.05 0.04 0.04 0.03 0.03 0.03 0.03
0.05 0.05 0.05 0.05 0.06 0.07 0.08 0.08 0.08 0.08 0.07 0.06 0.05 0.06 0.07 0.09 0.10 0.12 0.15 0.15 0.15 0.14 0.13 0.13 0.14 0.14 0.12 0.11 0.10 0.09 0.08 0.06 0.05 0.04 0.03 0.02 0.02 0.03
0.04 0.05 0.05 0.06 0.07 0.07 0.08 0.07 0.07 0.07 0.06 0.06 0.06 0.06 0.06 0.08 0.10 0.11 0.14 0.16 0.16 0.16 0.14 0.14 0.15 0.15 0.14 0.11 0.09 0.08 0.08 0.07 0.05 0.04 0.03 0.03 0.02 0.02
0.05 0.06 0.07 0.08 0.09 0.09 0.09 0.08 0.08 0.08 0.08 0.08 0.08 0.07 0.07 0.08 0.09 0.10 0.12 0.13 0.14 0.14 0.14 0.15 0.16 0.15 0.14 0.13 0.09 0.08 0.08 0.07 0.06 0.04 0.03 0.03 0.02 0.02
0.06 0.07 0.08 0.08 0.10 0.09 0.11 0.10 0.09 0.09 0.09 0.08 0.08 0.08 0.08 0.08 0.09 0.09 0.10 0.12 0.14 0.14 0.15 0.15 0.15 0.16 0.15 0.14 0.12 0.09 0.07 0.06 0.06 0.04 0.03 0.03 0.02 0.02
0.05 0.06 0.08 0.08 0.10 0.11 0.12 0.11 0.09 0.08 0.08 0.07 0.06 0.06 0.06 0.06 0.07 0.08 0.09 0.11 0.15 0.15 0.16 0.16 0.15 0.15 0.14 0.12 0.12 0.10 0.08 0.06 0.06 0.05 0.04 0.03 0.02 0.02
0.05 0.07 0.08 0.09 0.09 0.09 0.10 0.09 0.08 0.07 0.07 0.07 0.06 0.05 0.04 0.05 0.07 0.08 0.10 0.11 0.12 0.14 0.15 0.16 0.15 0.13 0.11 0.10 0.11 0.09 0.08 0.07 0.06 0.05 0.04 0.03 0.02 0.02
0.04 0.06 0.07 0.07 0.07 0.07 0.07 0.07 0.06 0.05 0.06 0.05 0.05 0.04 0.04 0.05 0.06 0.08 0.10 0.12 0.13 0.13 0.11 0.14 0.14 0.12 0.11 0.09 0.09 0.07 0.06 0.06 0.06 0.05 0.04 0.03 0.03 0.02
0.03 0.04 0.04 0.04 0.04 0.05 0.05 0.06 0.06 0.06 0.06 0.06 0.06 0.06 0.07 0.07 0.08 0.10 0.12 0.14 0.14 0.14 0.11 0.11 0.11 0.10 0.10 0.09 0.07 0.07 0.05 0.05 0.06 0.05 0.05 0.04 0.03 0.02
0.02 0.02 0.02 0.02 0.02 0.03 0.04 0.05 0.06 0.06 0.06 0.06 0.06 0.08 0.08 0.07 0.09 0.10 0.12 0.12 0.12 0.13 0.10 0.08 0.09 0.08 0.09 0.08 0.06 0.07 0.06 0.06 0.05 0.05 0.04 0.03 0.03 0.03
0.02 0.01 0.01 0.01 0.01 0.02 0.03 0.05 0.07 0.06 0.05 0.06 0.07 0.09 0.10 0.09 0.11 0.11 0.11 0.10 0.10 0.10 0.08 0.06 0.07 0.06 0.06 0.07 0.07 0.06 0.06 0.05 0.06 0.05 0.05 0.04 0.04 0.03
0.03 0.02 0.01 0.01 0.02 0.02 0.03 0.06 0.08 0.08 0.07 0.07 0.08 0.10 0.11 0.11 0.11 0.11 0.09 0.08 0.08 0.08 0.07 0.05 0.05 0.05 0.05 0.05 0.05 0.06 0.05 0.05 0.05 0.06 0.05 0.04 0.04 0.03
0.04 0.04 0.03 0.03 0.04 0.04 0.05 0.06 0.06 0.07 0.08 0.08 0.08 0.08 0.10 0.11 0.11 0.11 0.10 0.10 0.11 0.09 0.07 0.05 0.04 0.05 0.05 0.05 0.05 0.06 0.06 0.05 0.05 0.06 0.05 0.04 0.03 0.03
0.04 0.04 0.04 0.05 0.05 0.04 0.06 0.06 0.05 0.06 0.07 0.06 0.06 0.06 0.08 0.10 0.11 0.10 0.10 0.09 0.09 0.09 0.08 0.06 0.05 0.04 0.04 0.05 0.05 0.06 0.05 0.05 0.05 0.05 0.06 0.05 0.04 0.03
0.04 0.06 0.07 0.06 0.05 0.05 0.05 0.04 0.05 0.05 0.06 0.05 0.04 0.04 0.06 0.08 0.09 0.09 0.07 0.06 0.06 0.06 0.07 0.06 0.05 0.05 0.05 0.05 0.05 0.05 0.05 0.04 0.04 0.04 0.04 0.05 0.04 0.03
0.06 0.06 0.05 0.05 0.04 0.04 0.03 0.03 0.03 0.04 0.04 0.04 0.04 0.03 0.04 0.05 0.07 0.07 0.06 0.06 0.06 0.05 0.05 0.05 0.05 0.05 0.06 0.06 0.05 0.04 0.04 0.04 0.04 0.04 0.04 0.03 0.03 0.03
0.06 0.05 0.03 0.03 0.03 0.03 0.03 0.02 0.03 0.03 0.03 0.03 0.03 0.03 0.03 0.04 0.06 0.07 0.06 0.06 0.07 0.07 0.06 0.05 0.05 0.04 0.05 0.04 0.04 0.04 0.03 0.04 0.04 0.04 0.04 0.03 0.03 0.03
0.05 0.04 0.03 0.02 0.01 0.02 0.02 0.02 0.03 0.03 0.03 0.03 0.02 0.02 0.03 0.04 0.05 0.06 0.06 0.06 0.06 0.07 0.07 0.07 0.06 0.05 0.04 0.03 0.03 0.03 0.04 0.03 0.03 0.03 0.03 0.03 0.03 0.03
0.04 0.05 0.04 0.03 0.02 0.02 0.02 0.03 0.03 0.02 0.02 0.02 0.02 0.02 0.03 0.04 0.05 0.05 0.05 0.06 0.07 0.07 0.07 0.07 0.06 0.06 0.05 0.04 0.03 0.03 0.04 0.04 0.04 0.03 0.03 0.03 0.03 0.03
0.05 0.05 0.05 0.04 0.04 0.03 0.04 0.04 0.04 0.03 0.02 0.02 0.02 0.02 0.03 0.03 0.04 0.05 0.06 0.06 0.07 0.07 0.07 0.06 0.07 0.07 0.06 0.04 0.03 0.03 0.04 0.04 0.04 0.04 0.03 0.03 0.03 0.04
0.05 0.05 0.05 0.05 0.05 0.05 0.05 0.05 0.04 0.03 0.02 0.02 0.02 0.02 0.03 0.03 0.04 0.05 0.05 0.06 0.06 0.07 0.07 0.07 0.07 0.07 0.06 0.04 0.04 0.04 0.04 0.03 0.03 0.03 0.03 0.03 0.04 0.04
MSLP
1008.68 1008.06 1007.27 1006.26 1005.00 1003.50 1001.82 1000.03 998.23 996.51 994.96 993.63 992.55 991.70 991.05 990.53 990.13 989.79 989.53 989.35 989.30 989.43 989.78 990.37 991.22 992.31 993.59 995.01 996.49 997.97 999.40 1000.74 1001.97 1003.10 1004.13 1005.07 1005.95 1006.78
1007.93 1007.23 1006.35 1005.23 1003.86 1002.24 1000.45 998.57 996.68 994.91 993.32 991.96 990.87 990.03 989.40 988.94 988.60 988.37 988.22 988.19 988.31 988.62 989.16 989.93 990.95 992.19 993.58 995.08 996.61 998.10 999.52 1000.82 1002.00 1003.08 1004.05 1004.95 1005.80 1006.60
1007.18 1006.37 1005.37 1004.13 1002.64 1000.92 999.03 997.07 995.14 993.33 991.72 990.37 989.30 988.50 987.93 987.54 987.30 987.19 987.19 987.33 987.63 988.13 988.85 989.79 990.96 992.31 993.79 995.33 996.87 998.35 999.72 1000.98 1002.10 1003.12 1004.05 1004.92 1005.73 1006.51
1006.48 1005.56 1004.43 1003.06 1001.46 999.64 997.68 995.67 993.72 991.91 990.32 989.00 987.99 987.25 986.77 986.49 986.38 986.41 986.58 986.90 987.39 988.07 988.96 990.06 991.33 992.76 994.27 995.81 997.31 998.73 1000.04 1001.22 1002.29 1003.25 1004.14 1004.97 1005.76 1006.52
1005.87 1004.83 1003.58 1002.11 1000.41 998.53 996.52 994.50 992.55 990.77 989.23 987.98 987.04 986.41 986.03 985.89 985.93 986.13 986.49 987.00 987.67 988.53 989.56 990.76 992.11 993.56 995.05 996.53 997.96 999.28 1000.49 1001.57 1002.56 1003.46 1004.30 1005.10 1005.87 1006.62
1005.35 1004.21 1002.88 1001.32 999.57 997.64 995.63 993.62 991.72 990.00 988.55 987.39 986.56 986.05 985.80 985.80 986.01 986.39 986.92 987.62 988.46 989.46 990.61 991.88 993.25 994.67 996.09 997.47 998.77 999.96 1001.04 1002.01 1002.90 1003.73 1004.52 1005.29 1006.04 1006.78
1004.93 1003.71 1002.31 1000.72 998.94 997.02 995.05 993.10 991.28 989.66 988.32 987.28 986.58 986.19 986.08 986.23 986.59 987.13 987.83 988.68 989.67 990.78 992.00 993.29 994.64 995.99 997.31 998.55 999.70 1000.74 1001.67 1002.51 1003.30 1004.05 1004.78 1005.51 1006.25 1006.96
1004.56 1003.30 1001.87 1000.27 998.51 996.65 994.76 992.92 991.22 989.74 988.53 987.63 987.06 986.80 986.82 987.10 987.59 988.26 989.09 990.05 991.13 992.31 993.55 994.84 996.13 997.39 998.57 999.67 1000.65 1001.53 1002.31 1003.03 1003.71 1004.38 1005.07 1005.76 1006.47 1007.16
1004.21 1002.94 1001.51 999.94 998.24 996.48 994.71 993.02 991.48 990.16 989.12 988.37 987.93 987.79 987.93 988.30 988.88 989.64 990.54 991.56 992.68 993.87 995.10 996.34 997.55 998.70 999.76 1000.71 1001.54 1002.28 1002.94 1003.55 1004.14 1004.74 1005.37 1006.03 1006.71 1007.38
1003.85 1002.58 1001.18 999.66 998.06 996.43 994.83 993.32 991.98 990.85 989.98 989.40 989.09 989.07 989.29 989.72 990.35 991.13 992.04 993.06 994.17 995.33 996.50 997.67 998.79 999.83 1000.77 1001.60 1002.32 1002.95 1003.51 1004.04 1004.57 1005.12 1005.71 1006.33 1006.98 1007.62
1003.45 1002.18 1000.82 999.39 997.91 996.44 995.03 993.73 992.61 991.70 991.03 990.61 990.44 990.51 990.79 991.25 991.88 992.63 993.51 994.47 995.51 996.58 997.68 998.75 999.78 1000.73 1001.58 1002.33 1002.97 1003.54 1004.05 1004.53 1005.03 1005.54 1006.10 1006.69 1007.30 1007.90
1002.98 1001.74 1000.44 999.10 997.75 996.46 995.25 994.18 993.29 992.61 992.14 991.89 991.86 992.02 992.34 992.81 993.40 994.09 994.88 995.75 996.68 997.65 998.63 999.61 1000.55 1001.42 1002.22 1002.92 1003.53 1004.08 1004.57 1005.04 1005.52 1006.02 1006.55 1007.10 1007.68 1008.24
1002.48 1001.26 1000.02 998.77 997.57 996.45 995.46 994.62 993.97 993.52 993.26 993.19 993.28 993.52 993.88 994.34 994.88 995.49 996.17 996.92 997.72 998.57 999.44 1000.32 1001.18 1001.99 1002.75 1003.44 1004.05 1004.60 1005.10 1005.58 1006.06 1006.55 1007.06 1007.58 1008.10 1008.61
1001.96 1000.77 999.59 998.45 997.38 996.44 995.65 995.04 994.61 994.38 994.33 994.43 994.66 994.98 995.38 995.82 996.31 996.84 997.41 998.03 998.71 999.43 1000.19 1000.97 1001.76 1002.53 1003.27 1003.95 1004.57 1005.14 1005.67 1006.16 1006.64 1007.12 1007.60 1008.08 1008.54 1008.99
1001.46 1000.31 999.20 998.16 997.22 996.44 995.84 995.43 995.22 995.19 995.33 995.59 995.94 996.35 996.79 997.24 997.70 998.15 998.63 999.14 999.70 1000.31 1000.97 1001.67 1002.39 1003.12 1003.83 1004.51 1005.14 1005.73 1006.27 1006.77 1007.24 1007.69 1008.13 1008.55 1008.95 1009.33
1001.02 999.93 998.89 997.94 997.13 996.49 996.06 995.82 995.79 995.95 996.25 996.66 997.13 997.63 998.12 998.59 999.02 999.44 999.85 1000.27 1000.74 1001.25 1001.82 1002.45 1003.11 1003.79 1004.48 1005.14 1005.76 1006.34 1006.87 1007.35 1007.80 1008.21 1008.59 1008.95 1009.28 1009.58
1000.67 999.64 998.69 997.84 997.14 996.63 996.33 996.25 996.37 996.66 997.10 997.64 998.21 998.79 999.34 999.83 1000.27 1000.67 1001.04 1001.42 1001.82 1002.26 1002.76 1003.32 1003.92 1004.56 1005.19 1005.82 1006.41 1006.96 1007.45 1007.90 1008.29 1008.64 1008.96 1009.25 1009.50 1009.73
1000.44 999.49 998.62 997.87 997.27 996.88 996.69 996.72 996.95 997.36 997.90 998.53 999.18 999.83 1000.43 1000.96 1001.42 1001.82 1002.19 1002.54 1002.90 1003.30 1003.75 1004.25 1004.80 1005.37 1005.95 1006.52 1007.05 1007.54 1007.98 1008.36 1008.69 1008.98 1009.22 1009.44 1009.63 1009.79
1000.32 999.46 998.69 998.03 997.54 997.24 997.14 997.26 997.58 998.06 998.66 999.35 1000.06 1000.75 1001.39 1001.96 1002.45 1002.87 1003.24 1003.59 1003.94 1004.31 1004.72 1005.18 1005.66 1006.17 1006.69 1007.19 1007.65 1008.07 1008.44 1008.75 1009.01 1009.23 1009.41 1009.56 1009.69 1009.81
1000.30 999.54 998.87 998.32 997.92 997.71 997.69 997.88 998.25 998.77 999.42 1000.13 1000.86 1001.58 1002.24 1002.83 1003.35 1003.79 1004.17 1004.53 1004.88 1005.24 1005.62 1006.04 1006.48 1006.93 1007.38 1007.80 1008.20 1008.54 1008.83 1009.08 1009.27 1009.43 1009.56 1009.67 1009.77 1009.85
1000.37 999.71 999.15 998.70 998.40 998.28 998.34 998.57 998.98 999.53 1000.18 1000.89 1001.62 1002.34 1003.00 1003.60 1004.12 1004.58 1004.98 1005.34 1005.69 1006.04 1006.41 1006.80 1007.19 1007.60 1007.99 1008.35 1008.68 1008.96 1009.19 1009.38 1009.53 1009.64 1009.74 1009.83 1009.91 1009.98
1000.50 999.96 999.51 999.18 998.98 998.94 999.06 999.35 999.78 1000.33 1000.97 1001.66 1002.37 1003.06 1003.71 1004.29 1004.80 1005.26 1005.66 1006.03 1006.38 1006.72 1007.08 1007.44 1007.81 1008.17 1008.51 1008.83 1009.10 1009.34 1009.53 1009.68 1009.80 1009.90 1009.99 1010.08 1010.16 1010.24
1000.71 1000.28 999.95 999.72 999.63 999.68 999.87 1000.19 1000.64 1001.19 1001.81 1002.47 1003.14 1003.78 1004.38 1004.93 1005.42 1005.86 1006.25 1006.61 1006.95 1007.29 1007.64 1007.98 1008.32 1008.66 1008.97 1009.25 1009.50 1009.71 1009.88 1010.02 1010.13 1010.23 1010.33 1010.43 1010.53 1010.63
Thickness
5534 5534 5534 5535 5536 5537 5537 5537 5536 5538 5545 5549 5550 5552 5552 5554 5556 5557 5559 5561 5563 5564 5565 5565 5564 5563 5561 5558 5553 5550 5545 5540 5534 5529 5524 5520 5515 5510
5525 5525 5525 5526 5526 5526 5527 5528 5529 5530 5534 5540 5541 5541 5542 5544 5546 5547 5549 5551 5553 5555 5555 5555 5555 5554 5552 5549 5545 5542 5537 5532 5526 5521 5517 5512 5507 5502
5517 5517 5517 5517 5516 5517 5518 5519 5520 5521 5524 5529 5530 5532 5532 5534 5536 5538 5540 5541 5543 5545 5546 5546 5545 5544 5543 5541 5537 5533 5528 5523 5518 5512 5508 5504 5499 5495
5509 5508 5508 5508 5508 5509 5509 5511 5513 5515 5516 5519 5521 5522 5523 5525 5527 5528 5530 5532 5533 5535 5536 5537 5536 5535 5534 5532 5529 5525 5519 5514 5510 5504 5500 5496 5492 5487
5501 5501 5501 5501 5501 5501 5502 5504 5505 5508 5509 5510 5512 5513 5514 5515 5516 5518 5520 5521 5523 5524 5526 5527 5527 5527 5525 5523 5520 5515 5510 5506 5502 5497 5492 5488 5483 5479
5494 5494 5495 5495 5495 5495 5496 5497 5498 5499 5501 5502 5503 5504 5505 5505 5505 5507 5509 5510 5512 5514 5515 5516 5517 5517 5515 5513 5510 5506 5502 5497 5493 5489 5484 5480 5475 5471
5487 5488 5488 5489 5490 5490 5491 5490 5491 5492 5493 5494 5495 5496 5497 5497 5497 5497 5498 5499 5500 5502 5505 5506 5506 5505 5503 5502 5499 5496 5492 5488 5484 5481 5477 5474 5469 5464
5481 5481 5482 5483 5484 5485 5485 5485 5486 5486 5486 5487 5489 5490 5490 5489 5488 5488 5488 5489 5490 5493 5493 5495 5494 5493 5492 5491 5489 5486 5483 5479 5476 5474 5471 5467 5463 5458
5474 5474 5475 5476 5476 5476 5477 5478 5478 5480 5481 5481 5482 5483 5483 5484 5482 5480 5479 5479 5481 5481 5481 5483 5483 5482 5482 5481 5479 5476 5473 5471 5469 5467 5464 5460 5457 5452
5466 5466 5467 5467 5467 5467 5468 5468 5469 5470 5472 5473 5476 5476 5476 5476 5475 5473 5472 5471 5471 5470 5470 5470 5471 5470 5471 5470 5469 5467 5465 5463 5462 5460 5457 5453 5449 5445
5459 5459 5459 5460 5461 5461 5461 5461 5462 5462 5464 5466 5467 5468 5469 5468 5467 5465 5463 5462 5462 5461 5459 5459 5459 5458 5459 5459 5458 5458 5457 5456 5454 5453 5450 5446 5442 5438
5451 5452 5453 5453 5453 5453 5453 5453 5454 5454 5455 5457 5458 5458 5459 5459 5459 5458 5457 5455 5453 5453 5451 5450 5449 5447 5446 5448 5448 5448 5448 5447 5447 5445 5442 5440 5436 5431
5445 5444 5445 5446 5446 5446 5446 5447 5448 5447 5447 5447 5448 5448 5448 5449 5449 5448 5448 5448 5448 5446 5445 5443 5441 5439 5437 5437 5438 5438 5438 5439 5438 5437 5435 5433 5430 5426
5438 5438 5438 5438 5439 5440 5440 5441 5441 5441 5439 5439 5438 5438 5439 5439 5439 5439 5439 5440 5441 5441 5440 5439 5436 5435 5432 5430 5430 5430 5430 5430 5430 5429 5428 5426 5423 5419
5432 5432 5432 5433 5433 5433 5433 5434 5433 5432 5432 5431 5430 5429 5429 5430 5430 5431 5431 5432 5432 5432 5432 5433 5433 5430 5428 5426 5424 5423 5422 5422 5422 5421 5420 5419 5416 5413
5424 5424 5425 5426 5425 5425 5425 5425 5424 5424 5423 5423 5422 5421 5421 5422 5421 5422 5423 5425 5424 5423 5423 5424 5424 5424 5422 5421 5420 5418 5417 5415 5415 5414 5413 5411 5409 5407
5417 5417 5416 5416 5416 5416 5416 5416 5416 5416 5415 5415 5415 5414 5414 5414 5414 5415 5416 5417 5416 5415 5415 5415 5416 5416 5416 5415 5413 5412 5410 5409 5409 5408 5406 5404 5402 5401
5412 5410 5409 5410 5410 5409 5410 5409 5409 5409 5409 5409 5408 5408 5408 5408 5408 5408 5408 5409 5409 5408 5409 5409 5409 5409 5408 5405 5405 5404 5403 5402 5402 5402 5400 5398 5396 5396
5405 5404 5404 5404 5404 5404 5404 5403 5402 5401 5401 5401 5401 5401 5402 5401 5401 5402 5402 5403 5402 5402 5402 5403 5404 5405 5404 5400 5396 5397 5397 5397 5396 5395 5394 5393 5391 5391
5397 5397 5398 5398 5398 5398 5398 5396 5395 5395 5394 5393 5394 5394 5395 5395 5396 5396 5397 5398 5397 5396 5397 5397 5398 5400 5400 5397 5392 5390 5391 5391 5391 5390 5388 5387 5386 5386
5390 5391 5391 5392 5392 5392 5392 5391 5390 5389 5388 5388 5388 5388 5389 5390 5391 5391 5392 5392 5392 5392 5393 5393 5393 5394 5393 5391 5388 5385 5385 5386 5387 5386 5385 5383 5382 5382
5384 5385 5386 5386 5387 5387 5387 5386 5385 5384 5384 5384 5384 5384 5384 5385 5386 5387 5387 5388 5389 5389 5388 5388 5388 5389 5389 5388 5385 5382 5380 5380 5381 5382 5382 5383 5381 5380
5379 5380 5380 5381 5382 5382 5382 5382 5381 5381 5380 5380 5379 5379 5380 5381 5382 5383 5384 5385 5385 5384 5384 5383 5383 5383 5383 5382 5380 5378 5376 5376 5376 5377 5378 5380 5381 5381